Tracking 29528 objects as of 12-Sep-2024
HD Live streaming from Space Station
objects crossing your sky now

COSMOS 249 DEB *

Track COSMOS 249 DEB * now!
10-day predictions


NORAD ID: 3790
Int'l Code: 1968-091AX
Perigee: 593.2 km
Apogee: 1,653.7 km
Inclination: 63.0 °
Period: 107.6 minutes
Semi major axis: 7494 km
RCS: 0.0825 m2 (small)
Launch date: October 20, 1968
Source: Commonwealth of Independent States (former USSR) (CIS)
Launch site: TYURATAM MISSILE AND SPACE COMPLEX (TTMTR)

Note: This is SATELLITE DEBRIS
Your satellite tracking list
Your tracking list is empty




NASA's NSSDC Master Catalog

Two Line Element Set (TLE):
1 03790U 68091AX  24255.86783926  .00002393  00000-0  10646-2 0  9996
2 03790  62.9994 185.2530 0707523 255.9937  96.1489 13.38117786681296
Source of the keplerian elements: AFSPC